{"data":{"norad_id":43169,"intl_designator":"2018-011A","name":"WEINA 1A","alt_names":[],"object_type":"PAYLOAD","status":"ACTIVE","operator":null,"country":"PRC","launch_date":"2018-01-25","launch_site_code":"XICLF","launch_vehicle":null,"mission":null,"orbit_class":"UNKNOWN","rcs_meters":null,"size_class":null,"mass_kg":null,"dimensions":null,"purposes":[],"wikipedia_slug":null,"has_3d_model":false,"image_url":null,"decayed_at":null,"tle_current":{"epoch":"2026-09-20T04:03:05.406048Z","epoch_age_seconds":80843,"freshness":"FRESH","line1":"1 43169U 18011A   26263.16881257  .00001320  00000+0  10281-3 0  9991","line2":"2 43169  34.9960 304.3569 0002418 167.5949 192.4819 15.01306531472408","mean_motion":15.01306531,"eccentricity":0.0002418,"inclination_deg":34.996,"raan_deg":304.3569,"arg_perigee_deg":167.5949,"mean_anomaly_deg":192.4819,"bstar":0.00010281,"rev_number":47240,"period_min":95.916454785608,"perigee_km":561.18809095359,"apogee_km":564.5447602102,"semimajor_km":6941.0034255819,"source":"CELESTRAK","updated_at":"2026-09-20T09:00:14.304367Z"}}}